Location: Bannatyne
(13.0833°N, 59.5333°W)
Time: 15:27:19
(UTC+00:00)

Transit 4A - Pass Details

Date: 22 January 2021
Orbit: 866 x 978 km, 66.8° (Epoch: 05 March)

Event Time Altitude Azimuth Distance (km) Brightness Sun altitude
Rises 22:22:45 0° 206° (SSW) 3,618 11.7 -7.3°
Reaches altitude 10° 22:25:17 10° 209° (SSW) 2,686 11.1 -7.9°
Maximum altitude 22:31:32 67° 291° (WNW) 1,045 8.4 -9.3°
Drops below altitude 10° 22:37:53 10° 13° (NNE) 2,720 10.0 -10.8°
Sets 22:40:28 0° 16° (NNE) 3,667 10.7 -11.4°
